Track STARLINK-1740 now! 10-day predictions STARLINK-1740 is classified as:
1 46566U 20070AL 22185.96537209 -.00000325 00000-0 -28947-5 0 9992 2 46566 53.0564 68.8223 0001924 64.9533 295.1655 15.06391185 97252